KE9LZ-9 Weather Reports


time (UTC)temp
C
wind
direction
speed
KPH
gust
KPH
rain 1hr
cm
rain 24hr
cm
rain mn
cm
humidity
%
barometer
mb
20260903114004 16 31 1.6 3.2 0.00 0.05 0.00 96 1015.0
20260903112004 16 17 0.0 3.2 0.00 0.05 0.00 96 1014.9
20260903111004 16 28 1.6 3.2 0.00 0.08 0.00 96 1014.8
20260903110004 16 0 1.6 3.2 0.00 0.15 0.00 96 1014.7
20260903105004 16 11 1.6 3.2 0.00 0.20 0.00 96 1014.7
20260903104005 16 15 1.6 3.2 0.00 0.23 0.00 97 1014.4
20260903102003 16 16 1.6 3.2 0.00 0.30 0.00 98 1014.6
20260903101003 16 29 1.6 3.2 0.00 0.38 0.00 99 1015.0
20260903100004 16 357 1.6 1.6 0.00 0.38 0.00 99 1014.8
20260903095004 16 16 1.6 1.6 0.00 0.38 0.00 99 1014.9
20260903094004 16 8 1.6 3.2 0.00 0.38 0.00 99 1014.5
20260903092004 16 27 1.6 1.6 0.00 0.38 0.00 99 1014.3
20260903091004 16 18 1.6 3.2 0.00 0.38 0.00 99 1014.4
20260903090004 16 14 1.6 1.6 0.00 0.38 0.00 99 1014.4
20260903085004 16 19 1.6 1.6 0.00 0.38 0.00 99 1014.2
20260903084004 16 5 1.6 3.2 0.00 0.38 0.00 99 1014.5
20260903083004 16 15 1.6 1.6 0.00 0.38 0.00 99 1014.5
20260903081004 16 36 1.6 3.2 0.00 0.38 0.00 99 1014.4
20260903080004 16 18 1.6 3.2 0.00 0.38 0.00 99 1014.4
20260903075004 16 346 0.0 1.6 0.00 0.38 0.00 99 1014.4
20260903074004 16 14 1.6 3.2 0.00 0.38 0.00 99 1014.4
20260903072004 16 345 0.0 1.6 0.00 0.38 0.00 99 1014.6
20260903071004 17 2 1.6 1.6 0.00 0.38 0.00 99 1014.5
20260903070004 17 22 0.0 3.2 0.00 0.38 0.00 99 1014.6
20260903065004 17 343 0.0 3.2 0.00 0.38 0.00 99 1014.7
20260903064004 17 41 0.0 3.2 0.00 0.38 0.00 99 1014.6
20260903063004 17 43 1.6 1.6 0.00 0.38 0.00 99 1014.7
20260903062004 17 47 0.0 1.6 0.00 0.38 0.00 99 1014.5
20260903061003 17 51 0.0 1.6 0.00 0.38 0.00 99 1014.5
20260903060004 17 31 1.6 3.2 0.00 0.38 0.00 99 1014.5
20260903055004 17 22 0.0 1.6 0.00 0.38 0.00 99 1014.5
20260903054004 17 24 0.0 1.6 0.00 0.38 0.00 99 1014.4
20260903053004 17 41 0.0 3.2 0.00 0.38 0.00 99 1014.3
20260903052004 17 35 0.0 3.2 0.00 0.38 0.00 99 1014.2
20260903051004 18 31 1.6 1.6 0.00 0.38 0.00 99 1014.3
20260903050003 18 34 0.0 1.6 0.00 0.38 0.00 99 1014.3
20260903045004 18 47 1.6 3.2 0.00 0.38 0.38 99 1014.2
20260903044004 18 23 1.6 3.2 0.00 0.38 0.38 99 1014.0
20260903043004 18 55 1.6 3.2 0.00 0.38 0.38 99 1014.0
20260903042004 18 19 1.6 3.2 0.00 0.38 0.38 99 1014.0
20260903041003 18 31 1.6 3.2 0.00 0.38 0.38 99 1014.0
20260903040004 18 3 0.0 3.2 0.00 0.38 0.38 99 1014.0
20260903035003 18 42 0.0 4.8 0.00 0.38 0.38 99 1013.9
20260903034004 18 4 1.6 3.2 0.00 0.38 0.38 99 1013.7
20260903032004 18 1 0.0 1.6 0.00 0.38 0.38 99 1013.6
20260903031004 18 5 0.0 1.6 0.00 0.38 0.38 99 1013.4
20260903030004 19 11 0.0 1.6 0.00 0.38 0.38 98 1013.5
20260903025004 19 322 0.0 1.6 0.00 0.38 0.38 98 1013.6
20260903024004 19 341 0.0 1.6 0.00 0.38 0.38 98 1013.5
20260903023004 19 1 0.0 1.6 0.00 0.38 0.38 98 1013.6
20260903022004 19 42 0.0 1.6 0.00 0.38 0.38 97 1013.4
20260903021004 19 47 0.0 1.6 0.00 0.38 0.38 97 1013.3
20260903015004 20 17 0.0 1.6 0.00 0.38 0.38 95 1013.0
20260903014003 20 345 0.0 0.0 0.00 0.38 0.38 95 1012.8
20260903013004 20 4 0.0 0.0 0.00 0.38 0.38 94 1013.0
20260903012004 20 15 0.0 1.6 0.00 0.38 0.38 93 1012.8
20260903011004 20 327 0.0 1.6 0.00 0.38 0.38 92 1012.7
20260903005004 21 0 0.0 1.6 0.00 0.38 0.38 91 1012.5
20260903004004 21 322 0.0 1.6 0.00 0.38 0.38 90 1012.5
20260903003004 22 339 0.0 1.6 0.00 0.38 0.38 89 1012.6
20260903002004 22 322 0.0 0.0 0.00 0.38 0.38 88 1012.6
20260903000004 24 356 0.0 1.6 0.00 0.38 0.38 84 1012.5
20260902235004 25 353 0.0 1.6 0.00 0.38 0.38 81 1012.5
20260902234003 25 33 0.0 1.6 0.00 0.38 0.38 76 1012.5
20260902233004 26 344 0.0 1.6 0.00 0.38 0.38 72 1012.5
20260902232004 27 299 0.0 3.2 0.00 0.38 0.38 69 1012.5
20260902231004 27 343 1.6 4.8 0.00 0.38 0.38 67 1012.7
20260902230004 27 322 1.6 4.8 0.00 0.38 0.38 67 1012.7
20260902225004 27 280 1.6 8.0 0.00 0.38 0.38 65 1012.7
20260902224003 28 296 3.2 4.8 0.00 0.38 0.38 63 1012.6
20260902223003 28 89 1.6 4.8 0.00 0.38 0.38 61 1012.8
20260902222004 28 263 3.2 8.0 0.00 0.38 0.38 61 1012.6
20260902220004 28 87 1.6 8.0 0.00 0.38 0.38 60 1012.6
20260902215003 28 280 1.6 4.8 0.00 0.38 0.38 59 1012.8
20260902214004 28 271 3.2 9.7 0.00 0.38 0.38 59 1012.8
20260902213004 28 294 1.6 9.7 0.00 0.38 0.38 59 1012.8
20260902211004 28 191 1.6 4.8 0.00 0.38 0.38 59 1012.8
20260902210004 28 301 4.8 9.7 0.00 0.38 0.38 59 1012.8
20260902205003 28 302 3.2 9.7 0.00 0.38 0.38 61 1012.9
20260902204004 27 296 4.8 8.0 0.00 0.38 0.38 62 1012.9
20260902203004 27 256 4.8 11.3 0.00 0.38 0.38 60 1013.2
20260902201004 28 327 3.2 4.8 0.00 0.38 0.38 58 1013.3
20260902200003 27 308 3.2 8.0 0.00 0.38 0.38 61 1013.1
20260902195004 27 313 1.6 4.8 0.00 0.38 0.38 63 1013.0
20260902194004 26 303 4.8 11.3 0.00 0.38 0.38 62 1013.3
20260902191004 26 263 3.2 9.7 0.00 0.38 0.38 61 1013.6
20260902190004 26 267 4.8 11.3 0.00 0.38 0.38 63 1013.5
20260902185004 26 336 3.2 9.7 0.00 0.38 0.38 62 1013.6
20260902184004 26 355 3.2 12.9 0.00 0.38 0.38 67 1013.7
20260902183004 26 307 3.2 11.3 0.00 0.38 0.38 63 1013.9
20260902182004 26 291 3.2 12.9 0.00 0.38 0.38 66 1013.8
20260902181004 25 287 3.2 11.3 0.00 0.38 0.38 70 1013.6
20260902180006 25 306 4.8 12.9 0.00 0.38 0.38 71 1013.8
20260902175004 24 303 6.4 11.3 0.00 0.38 0.38 76 1014.0
20260902174004 24 280 6.4 11.3 0.00 0.38 0.38 76 1014.2
20260902171003 23 285 3.2 11.3 0.00 0.38 0.38 79 1014.1
20260902170003 23 229 3.2 9.7 0.00 0.38 0.38 80 1014.2
20260902165004 23 5 3.2 8.0 0.00 0.38 0.38 80 1014.3
20260902163003 22 275 4.8 9.7 0.00 0.38 0.38 85 1014.1
20260902161004 21 317 3.2 8.0 0.00 0.38 0.38 88 1014.1
20260902160005 21 302 3.2 9.7 0.00 0.38 0.38 88 1014.1
20260902155004 21 335 1.6 9.7 0.00 0.38 0.38 88 1014.0
20260902154004 21 285 3.2 9.7 0.00 0.38 0.38 88 1014.1
20260902153003 21 256 4.8 9.7 0.00 0.38 0.38 91 1014.1
20260902152004 21 284 3.2 8.0 0.00 0.38 0.38 89 1013.8
20260902151004 20 288 3.2 4.8 0.00 0.38 0.38 92 1013.6
20260902150004 19 337 1.6 3.2 0.00 0.38 0.38 97 1013.6
20260902145004 19 0 0.0 4.8 0.00 0.38 0.38 99 1013.9
20260902144004 18 4 3.2 4.8 0.00 0.38 0.38 99 1014.2
20260902143004 17 304 3.2 4.8 0.00 0.38 0.38 99 1014.5
20260902142004 17 325 3.2 8.0 0.00 0.38 0.38 99 1014.7
20260902140004 17 303 1.6 8.0 0.00 0.38 0.38 99 1014.9
20260902135004 17 288 3.2 8.0 0.00 0.38 0.38 99 1015.1
20260902134004 16 314 1.6 3.2 0.03 0.38 0.38 99 1014.9
20260902133003 16 302 0.0 4.8 0.00 0.38 0.38 99 1014.6
20260902132004 16 307 1.6 4.8 0.00 0.38 0.38 99 1014.9
20260902130004 16 331 0.0 4.8 0.00 0.38 0.38 99 1014.7
20260902125003 16 101 0.0 4.8 0.03 0.38 0.38 99 1014.8
20260902124004 16 317 1.6 4.8 0.03 0.38 0.38 99 1014.6
20260902123004 16 322 1.6 8.0 0.03 0.38 0.38 99 1014.5
20260902122004 16 340 3.2 8.0 0.03 0.38 0.38 99 1014.0
20260902121004 16 37 0.0 8.0 0.05 0.38 0.38 99 1013.9